Regional Weather Roundup
Issued by NWS

Home | Current Version | Previous Version | Graphics & Text | Print | Product List | Glossary On
Versions: 1 2 3 4 5 6 7 8 9 10 11 12 13 14 15 16 17 18 19 20 21 22 23 24 25 26 27 28 29 30 31 32 33 34 35 36 37 38 39 40 41 42 43 44 45 46 47 48 49 50
000
ASUS43 KLOT 251609
RWRIL

ILLINOIS REGIONAL WEATHER ROUNDUP
NATIONAL WEATHER SERVICE CHICAGO/ROMEOVILLE IL
1100 AM CDT MON SEP 25 2017

NOTE: "FAIR" INDICATES FEW OR NO CLOUDS BELOW 12,000 FEET WITH NO
SIGNIFICANT WEATHER AND/OR OBSTRUCTIONS TO VISIBILITY.

* THESE STATIONS ARE NOT UNDER NWS QUALITY CONTROL. THEY ALSO MAY NOT
  REPORT WEATHER SUCH AS PRECIPITATION OR FOG.

ILZ001-002-007-009-015-016-024-251700-
NORTHWEST ILLINOIS

CITY           SKY/WX    TMP DP  RH WIND       PRES   REMARKS
MOLINE         SUNNY     81  66  60 CALM      29.97F HX  83
STERLING*      SUNNY     84  64  50 VRB5      29.99F HX  85
SAVANNA*       SUNNY     80  64  58 SW5       29.99S HX  82
$$

ILZ003-004-008-010-011-017-018-251700-
NORTH CENTRAL ILLINOIS

CITY           SKY/WX    TMP DP  RH WIND       PRES   REMARKS
ROCKFORD       MOSUNNY   83  63  50 CALM      30.01F HX  84
FREEPORT*      SUNNY     83  63  51 S7        30.01S HX  84
ROCHELLE*      SUNNY     86  61  42 SE3       30.01S HX  86
DE KALB*       SUNNY     85  64  49 S5        30.02F HX  86
PERU*          SUNNY     83  60  46 S3        30.00F HX  83
$$

ILZ005-006-012>014-019>023-251700-
NORTHEAST ILLINOIS

CITY           SKY/WX    TMP DP  RH WIND       PRES   REMARKS
CHICAGO-OHARE  MOSUNNY   84  61  45 VRB6      30.01S HX  84
CHICAGO-MIDWAY MOSUNNY   86  63  45 S7        30.01F HX  87
AURORA         SUNNY     84  65  52 E3        30.01F HX  86
LANSING*       SUNNY     84  66  53 S6        30.02F HX  86
JOLIET*        MOSUNNY   83  66  56 S3        30.02S HX  85
WAUKEGAN       SUNNY     83  66  56 VRB3      30.00F HX  85
DUPAGE AIRPORT SUNNY     83  64  52 S7        30.01F HX  84
KANKAKEE*      MOSUNNY   84  65  52 S3        30.03F HX  86
WHEELING       SUNNY     86  62  44 S5        30.02F HX  86
MORRIS*        SUNNY     83  64  52 S6        30.00F HX  84
ROMEOVILLE*    SUNNY     83  64  52 SE6       30.02F HX  84
NORTHERLY ISL    N/A     79  64  60 SE3         N/A  HX  81
$$

LMZ740>746-251700-
SOUTHERN LAKE MICHIGAN

STATION/POSITION SKY/WX   TEMP    WIND        PRES    VSBY  WAVE
                          AIR SEA DIR/SP/G                  HT/PER
                          (F)     (DEG/KT/KT) (MB)    (MI)  (FT/S)
SOUTHERN BUOY              72 71  150/  8/ 10 1016.6F         1/ 3
WILMETTE HARBOR            72 70  140/  8/ 10   N/A           1/ 2
HARRISON CRIB              75     150/  8/  9   N/A
BURNHAM HARBOR             80                   N/A
CALUMET HARBOR             83     180/  3/  5 1015.9F
BURNS HARBOR               82     190/  6/  9 1017.3F
MICHIGAN CITY              81     160/  5/  7   N/A
MICHIGAN CITY 6N           76 72  170/  4/  4   N/A           1
ST. JOSEPH                 76 71  200/  2/  2 1016.9          0
$$

ILZ025>027-034>036-040-047-049-050-058-095>099-251700-
WEST-CENTRAL ILLINOIS

CITY           SKY/WX    TMP DP  RH WIND       PRES   REMARKS
QUINCY         SUNNY     82  65  56 S7        29.99F HX  84
GALESBURG*     SUNNY     83  66  56 SW7       30.00S HX  85
MACOMB*        SUNNY     84  64  51 S6        30.01F HX  85
JACKSONVILLE*  SUNNY     84  64  50 SE5       30.01F HX  85
PITTSFIELD*    SUNNY     83  66  57 S5        30.02S HX  85
$$

ILZ028>032-037-038-041>044-048-051>054-059>061-251700-
CENTRAL ILLINOIS

CITY           SKY/WX    TMP DP  RH WIND       PRES   REMARKS
PONTIAC        SUNNY     86  67  52 S5        30.02F HX  89
BLOOMINGTON    SUNNY     83  68  60 S7        30.03F HX  86
DECATUR        SUNNY     85  65  51 S5        30.02F HX  86
PEORIA         SUNNY     83  66  56 SW7       30.01S HX  85
LACON*         SUNNY     84  64  50 SW6       29.99F HX  86
LINCOLN*       SUNNY     85  67  53 SW5       30.01F HX  88
SPRINGFIELD    SUNNY     86  66  51 S6        30.02S HX  88
TAYLORVILLE    SUNNY     84  65  51 SW5       30.02F HX  86
$$

ILZ033-039-045-046-055>057-062-063-251700-
EAST-CENTRAL ILLINOIS

CITY           SKY/WX    TMP DP  RH WIND       PRES   REMARKS
CHAMPAIGN      SUNNY     87  63  44 S5        30.03F HX  88
RANTOUL*       SUNNY     86  65  49 CALM      30.03F HX  87
MATTOON        SUNNY     84  66  54 CALM      30.02F HX  86
PARIS*         SUNNY     85  66  53 S6        30.05S HX  87
$$

ILZ079-100>102-251700-
SOUTHWEST ILLINOIS

CITY           SKY/WX    TMP DP  RH WIND       PRES   REMARKS
ALTON          SUNNY     82  70  65 SW8       30.02F HX  86
BELLEVILLE     SUNNY     85  67  55 SW7       30.00F HX  87
CAHOKIA*       SUNNY     85  66  53 VRB5      30.01F HX  87
SPARTA*        SUNNY     83  67  56 CALM      30.04S HX  86
$$

ILZ064>066-069>071-074>076-080>082-084>086-088>090-092>094-251700-
SOUTH-CENTRAL ILLINOIS

CITY           SKY/WX    TMP DP  RH WIND       PRES   REMARKS
CARBONDALE     SUNNY     82  69  64 VRB5      30.03F HX  85
CAIRO*         SUNNY     81  71  71 SW3       30.03F HX  84
EFFINGHAM*     SUNNY     86  64  47 SE3       30.04F HX  88
MARION         SUNNY     84  66  54 SW6       30.04F HX  86
MT. VERNON       N/A     83  67  58 CALM      30.04S HX  85
CENTRALIA*     SUNNY     85  69  57 SW5       30.03S HX  89
SALEM*         SUNNY     85  65  50 CALM      30.03S HX  87
METROPOLIS*    RAIN      85  68  58 CALM      30.04S HX  88
$$

ILZ067-068-072-073-078-083-087-091-251700-
SOUTHEAST ILLINOIS

CITY           SKY/WX    TMP DP  RH WIND       PRES   REMARKS
LAWRENCEVILLE  SUNNY     85  65  51 VRB3      30.04F HX  86
FLORA*         SUNNY     85  66  52 CALM      30.04S HX  87
FAIRFIELD*     SUNNY     86  66  51 CALM      30.02F HX  88
HARRISBURG*    SUNNY     85  68  57 CALM      30.04S HX  88
ROBINSON*      SUNNY     84  64  50 NW5       30.05S HX  85
CARMI*         SUNNY     86  67  53 CALM      30.03F HX  88
$$

ABBREVIATIONS USED IN REMARKS
   TC - TEMPERATURE IN CELSIUS
  WCI - WIND CHILL INDEX
   HX - HEAT INDEX
  VSB - VISIBILITY
$$




USA.gov is the U.S. government's official web portal to all federal, state and local government web resources and services.